Location: Qazi Observatory
(41.6337°N, 88.1517°W)
Time: 08:08:14
(UTC-05:00)

Amateur Radio Satellites - All Passes

Search period start: 30 August 2016 07:38
Search period end: 31 August 2016 07:38
Location: Qazi Observatory, 41.6337°N, 88.1517°W

Satellite Date Start Highest point End Downlink Frequencies (MHz)
Time Altitude Azimuth
Cosmos 2491 30 Aug 07:38:57 07:44:01 17° 284° (WNW) 07:49:07 435.465 / 435.565
BRITE-PL 30 Aug 07:48:55 07:53:35 27° 295° (WNW) 07:58:11 437.365/2234.400
STRAND 1 30 Aug 07:50:17 07:55:12 48° 260° (W) 08:00:08 437.568
NOAA 18 30 Aug 08:04:14 08:09:29 49° 291° (WNW) 08:14:43 137.9125
SO-50 30 Aug 08:19:15 08:23:50 69° 240° (WSW) 08:28:16 436.795
RS-15 30 Aug 08:20:31 08:31:46 38° 35° (NE) 08:42:55 29.354- 29.394
CUSAT 1 30 Aug 08:21:29 08:24:27 13° 63° (ENE) 08:27:34 437.405
LilacSat-2 30 Aug 08:28:22 08:30:03 13° 295° (WNW) 08:31:45 437.200
SEEDS 30 Aug 08:30:05 08:33:49 30° 96° (E) 08:37:33 437.485
Cubesat XI-IV 30 Aug 08:30:16 08:34:34 25° 296° (WNW) 08:38:50 437.490
NOAA 15 30 Aug 08:33:40 08:37:20 19° 298° (WNW) 08:41:01 137.62
HO-68 30 Aug 08:38:12 08:45:15 56° 101° (ESE) 08:52:13 435.675
PRISM 30 Aug 08:39:03 08:43:05 65° 75° (ENE) 08:47:12 437.425
DOVE 4 30 Aug 08:41:06 08:45:31 32° 292° (WNW) 08:49:42 437.250
CUTE-I 30 Aug 08:41:34 08:45:24 21° 297° (WNW) 08:49:13 437.470
GOMX 1 30 Aug 08:49:54 08:52:58 16° 300° (WNW) 08:55:56 467.674
UWE-3 30 Aug 08:51:59 08:54:46 17° 92° (E) 08:57:31 435.000/436.395/437.385
AAUSAT CUBESAT 2 30 Aug 08:53:01 08:56:42 29° 96° (E) 09:00:21 437.432
ISS 30 Aug 08:53:34 08:56:44 44° 331° (NNW) 08:59:55 145.825
YUBILEINY 30 Aug 08:54:35 08:59:25 16° 302° (WNW) 09:04:18 435.215
CANX-2 30 Aug 08:57:08 09:01:23 79° 284° (WNW) 09:05:38 2200.000
CUBEBUG 2 30 Aug 08:59:40 09:03:27 32° 96° (E) 09:07:10 437.445
BEESAT 2 30 Aug 09:00:17 09:03:31 24° 113° (ESE) 09:06:46 435.950
ZACube-1 30 Aug 09:00:38 09:02:41 13° 91° (E) 09:04:45 437.345
CINEMA 3 30 Aug 09:00:47 09:05:14 64° 286° (WNW) 09:09:28 145.822/145.860
CUTE 1.7 + AOD 2 30 Aug 09:02:40 09:06:55 79° 282° (WNW) 09:11:09 437.475
COMPASS 1 30 Aug 09:03:40 09:07:45 50° 100° (E) 09:11:50 437.405
BEESAT 3 30 Aug 09:11:47 09:15:39 67° 119° (ESE) 09:19:34 437.485
Cosmos 2504 30 Aug 09:12:32 09:19:13 26° 291° (WNW) 09:25:36 435.465 / 435.565
AIST 1 30 Aug 09:20:24 09:24:45 86° 274° (W) 09:29:10
ANTELSAT 30 Aug 09:21:39 09:25:03 21° 66° (ENE) 09:28:26 437.575/2403.000
DANDE 30 Aug 09:43:35 09:47:53 21° 72° (ENE) 09:52:56 436.750
TIGRISAT 30 Aug 09:50:45 09:55:00 39° 71° (ENE) 09:59:11 435.000
Oscar 11 30 Aug 10:00:26 10:04:44 67° 101° (E) 10:09:02 145.826/435.025
CUSAT 1 30 Aug 10:00:35 10:07:17 68° 79° (E) 10:15:07 437.405
SEEDS 30 Aug 10:06:02 10:09:22 23° 292° (WNW) 10:12:42 437.485
DELFI C3 30 Aug 10:07:21 10:10:58 31° 97° (E) 10:14:33 145.870
FUNcube-1 30 Aug 10:11:57 10:16:07 84° 104° (ESE) 10:20:15 145.935
UNISAT 6 30 Aug 10:19:59 10:24:35 85° 73° (ENE) 10:29:05 437.425
QB50P1 30 Aug 10:20:09 10:21:59 13° 63° (ENE) 10:23:50 145.935-145.965
Cosmos 2499 30 Aug 10:21:35 10:22:07 10° 76° (ENE) 10:22:37 435.465 / 435.565
HO-68 30 Aug 10:26:33 10:32:34 30° 300° (WNW) 10:38:35 435.675
JAS-2 30 Aug 10:26:35 10:27:06 10° 53° (NE) 10:27:37 435.910
UWE-3 30 Aug 10:27:32 10:31:24 37° 289° (WNW) 10:35:12 435.000/436.395/437.385
AAUSAT CUBESAT 2 30 Aug 10:28:43 10:32:01 23° 292° (WNW) 10:35:20 437.432
POPSAT HIP 1 30 Aug 10:29:38 10:32:12 16° 64° (ENE) 10:34:46 437.405
ISS 30 Aug 10:31:40 10:33:49 16° 350° (N) 10:35:59 145.825
RS-15 30 Aug 10:33:20 10:45:45 82° 241° (WSW) 10:57:53 29.354- 29.394
ZACube-1 30 Aug 10:35:17 10:39:17 48° 287° (WNW) 10:43:16 437.345
CUBEBUG 2 30 Aug 10:36:43 10:39:54 21° 293° (WNW) 10:43:02 437.445
BEESAT 2 30 Aug 10:37:41 10:41:12 30° 310° (NW) 10:44:46 435.950
COMPASS 1 30 Aug 10:40:33 10:42:53 15° 296° (WNW) 10:45:14 437.405
BEESAT 3 30 Aug 10:51:31 10:53:45 15° 319° (NW) 10:56:00 437.485
DUCHIFAT 1 30 Aug 10:52:46 10:56:12 24° 68° (ENE) 10:59:37 145.980
HUMSAT D 30 Aug 10:55:37 10:59:38 54° 100° (E) 11:03:39 437.325/437.525
ANTELSAT 30 Aug 10:57:14 11:01:32 39° 262° (W) 11:05:45 437.575/2403.000
QB50P2 30 Aug 10:59:17 11:03:08 34° 70° (ENE) 11:07:00 145.880/145.840
POLYITAN 1 30 Aug 11:01:46 11:05:38 34° 70° (ENE) 11:09:31 437.675
PCSat 30 Aug 11:02:01 11:07:05 43° 112° (ESE) 11:12:12 145.827
NANOSAT C BR1 30 Aug 11:07:29 11:11:24 37° 71° (ENE) 11:15:20 145.865
GONETS M04 30 Aug 11:08:56 11:16:43 38° 85° (E) 11:24:34
DANDE 30 Aug 11:25:04 11:30:46 67° 263° (W) 11:38:06 436.750
CUBEBUG 1 30 Aug 11:26:47 11:28:38 12° 90° (E) 11:30:28 437.445
TIGRISAT 30 Aug 11:28:24 11:31:47 20° 266° (W) 11:35:09 435.000
VELOX 1 30 Aug 11:32:55 11:34:22 11° 90° (E) 11:35:49 145.980
BUGSAT 1 30 Aug 11:35:13 11:38:56 30° 70° (ENE) 11:42:40 437.445
AIST 2 30 Aug 11:35:58 11:39:54 46° 117° (ESE) 11:43:52 435.215
Oscar 11 30 Aug 11:38:36 11:40:19 12° 298° (WNW) 11:42:01 145.826/435.025
DELFI C3 30 Aug 11:42:38 11:45:36 20° 293° (WNW) 11:48:34 145.870
50 SAT 30 Aug 11:42:51 11:44:26 12° 92° (E) 11:46:01 437.505
CUSAT 1 30 Aug 11:43:36 11:48:56 25° 272° (W) 11:54:51 437.405
QB50P1 30 Aug 11:52:59 11:57:13 63° 258° (WSW) 12:01:29 145.935-145.965
POPSAT HIP 1 30 Aug 12:03:26 12:07:35 49° 260° (W) 12:11:44 437.405
JAS-2 30 Aug 12:05:49 12:11:01 74° 74° (ENE) 12:16:39 435.910
Cosmos 2499 30 Aug 12:05:50 12:13:50 67° 93° (E) 12:21:16 435.465 / 435.565
ISS 30 Aug 12:09:04 12:11:16 16° 11° (N) 12:13:27 145.825
AUBIESAT-1 30 Aug 12:09:52 12:13:45 51° 105° (ESE) 12:17:19 437.475
UKube-1 30 Aug 12:13:33 12:16:18 16° 93° (E) 12:19:02 .
M-CUBED/EXP-1 PRIME 30 Aug 12:18:09 12:22:14 83° 108° (ESE) 12:25:56 437.505
AO-85 30 Aug 12:19:02 12:21:31 15° 38° (NE) 12:23:54 145.980
AISAT 30 Aug 12:19:57 12:24:10 39° 98° (E) 12:28:19 437.250
Oscar 19 30 Aug 12:20:34 12:24:25 22° 63° (ENE) 12:28:16 437.125/150
ESTCUBE 1 30 Aug 12:23:59 12:28:33 81° 103° (ESE) 12:33:06 437.505/2401.250
DUCHIFAT 1 30 Aug 12:28:02 12:31:45 29° 264° (W) 12:35:29 145.980
HUMSAT D 30 Aug 12:32:53 12:34:49 13° 296° (WNW) 12:36:44 437.325/437.525
QB50P2 30 Aug 12:35:47 12:39:00 21° 266° (W) 12:42:14 145.880/145.840
POLYITAN 1 30 Aug 12:38:18 12:41:31 20° 266° (W) 12:44:44 437.675
NANOSAT C BR1 30 Aug 12:44:13 12:47:15 19° 267° (W) 12:50:18 145.865
PCSat 30 Aug 12:45:53 12:50:37 30° 311° (NW) 12:55:22 145.827
RS-15 30 Aug 12:48:07 12:56:16 21° 262° (W) 13:04:22 29.354- 29.394
CUBEBUG 1 30 Aug 13:00:55 13:05:18 61° 286° (WNW) 13:09:38 437.445
AO-7 30 Aug 13:02:50 13:05:24 12° 42° (NE) 13:07:59 29.400- 29.500
SPROUT 30 Aug 13:04:10 13:08:24 60° 100° (E) 13:12:36 437.525
GONETS M04 30 Aug 13:04:55 13:13:17 48° 285° (WNW) 13:21:46
VELOX 1 30 Aug 13:06:50 13:11:17 67° 285° (WNW) 13:15:41 145.980
BUGSAT 1 30 Aug 13:10:53 13:14:18 23° 265° (W) 13:17:44 437.445
TISAT 1 30 Aug 13:13:21 13:15:52 15° 92° (E) 13:18:22 437.305
DX 1 30 Aug 13:13:40 13:18:05 84° 285° (WNW) 13:22:27 434.975-435.025
50 SAT 30 Aug 13:14:45 13:18:13 41° 287° (WNW) 13:21:39 437.505
AIST 2 30 Aug 13:15:32 13:18:36 20° 316° (NW) 13:21:42 435.215
ITAMSAT 1 30 Aug 13:42:00 13:45:23 18° 61° (ENE) 13:48:46 435.822/435.867
ISS 30 Aug 13:45:08 13:48:20 47° 30° (NNE) 13:51:31 145.825
AUBIESAT-1 30 Aug 13:45:42 13:47:42 14° 303° (WNW) 13:49:38 437.475
UKube-1 30 Aug 13:48:26 13:52:34 44° 289° (WNW) 13:56:40 .
O/OREOS (USA 219) 30 Aug 13:48:28 13:52:57 79° 293° (WNW) 13:57:30 437.305
Gurwin Techsat 1B 30 Aug 13:53:51 13:59:08 71° 74° (ENE) 14:04:27 435.225
JAS-2 30 Aug 13:54:40 13:56:56 13° 273° (W) 13:59:16 435.910
AISAT 30 Aug 13:57:05 14:00:21 20° 295° (WNW) 14:03:36 437.250
AO-85 30 Aug 13:58:19 14:02:34 76° 239° (WSW) 14:06:30 145.980
Oscar 19 30 Aug 13:58:22 14:03:21 50° 260° (W) 14:08:25 437.125/150
Cosmos 2499 30 Aug 14:01:16 14:07:28 24° 292° (WNW) 14:13:23 435.465 / 435.565
ESTCUBE 1 30 Aug 14:03:22 14:04:41 11° 300° (WNW) 14:06:00 437.505/2401.250
SWISSCUBE 30 Aug 14:13:13 14:16:06 16° 92° (E) 14:18:59 437.505
BEESAT 30 Aug 14:29:26 14:33:00 21° 94° (E) 14:36:35 436.000
SPROUT 30 Aug 14:41:51 14:43:50 13° 297° (WNW) 14:45:48 437.525
TISAT 1 30 Aug 14:47:44 14:51:45 44° 288° (WNW) 14:55:42 437.305
AO-7 30 Aug 14:48:15 14:56:12 50° 63° (ENE) 15:04:07 29.400- 29.500
YUBILEINY 30 Aug 15:09:53 15:11:44 11° 53° (NE) 15:13:34 435.215
ITUPSAT 1 30 Aug 15:18:08 15:22:54 64° 102° (ESE) 15:27:38 437.325
ITAMSAT 1 30 Aug 15:19:14 15:24:21 62° 259° (W) 15:29:30 435.822/435.867
ISS 30 Aug 15:22:03 15:24:36 21° 226° (SW) 15:27:07 145.825
Gurwin Techsat 1B 30 Aug 15:36:44 15:39:36 15° 270° (W) 15:42:27 435.225
HORYU 2 30 Aug 15:45:39 15:47:36 13° 61° (ENE) 15:49:33 437.375
SWISSCUBE 30 Aug 15:49:34 15:54:13 55° 288° (WNW) 15:58:52 437.505
MOZHAYETS 4 30 Aug 15:51:56 15:55:32 23° 94° (E) 15:59:08
BEESAT 30 Aug 16:06:28 16:10:57 41° 290° (WNW) 16:15:24 436.000
NOAA 15 30 Aug 16:36:49 16:39:16 13° 58° (ENE) 16:41:43 137.62
Cubesat XI-IV 30 Aug 16:37:23 16:37:58 10° 56° (NE) 16:38:33 437.490
AO-7 30 Aug 16:41:28 16:49:04 39° 261° (W) 16:56:45 29.400- 29.500
GOMX 1 30 Aug 16:43:55 16:45:34 11° 57° (ENE) 16:47:14 467.674
CUTE-I 30 Aug 16:46:18 16:48:36 13° 58° (ENE) 16:50:55 437.470
Cosmos 2491 30 Aug 16:47:11 16:53:27 23° 79° (E) 16:59:44 435.465 / 435.565
ITUPSAT 1 30 Aug 16:57:29 17:00:12 15° 298° (WNW) 17:02:54 437.325
KKS-1 30 Aug 16:59:00 17:03:30 85° 107° (ESE) 17:07:56 437.445
YUBILEINY 30 Aug 17:02:12 17:10:50 57° 77° (ENE) 17:19:21 435.215
Cosmos 2504 30 Aug 17:10:38 17:15:46 20° 65° (ENE) 17:20:51 435.465 / 435.565
BEESAT 2 30 Aug 17:17:50 17:20:46 19° 44° (NE) 17:23:42 435.950
HORYU 2 30 Aug 17:19:09 17:23:35 68° 258° (WSW) 17:28:03 437.375
CUBESAT XI-V 30 Aug 17:20:30 17:24:23 25° 94° (E) 17:28:17 437.345
BRITE-PL 30 Aug 17:20:33 17:25:18 48° 71° (ENE) 17:30:28 437.365/2234.400
STARS 30 Aug 17:25:59 17:30:24 82° 103° (ESE) 17:34:47 437.465
MOZHAYETS 4 30 Aug 17:28:36 17:32:47 35° 290° (WNW) 17:36:57
BEESAT 3 30 Aug 17:28:48 17:32:34 41° 52° (NE) 17:36:19 437.485
LilacSat-2 30 Aug 17:34:56 17:38:04 24° 69° (ENE) 17:41:11 437.200
NOAA 18 30 Aug 17:50:26 17:55:39 44° 69° (ENE) 18:00:53 137.9125
DOVE 4 30 Aug 18:08:15 18:12:50 32° 68° (ENE) 18:17:30 437.250
Cubesat XI-IV 30 Aug 18:11:46 18:17:05 72° 74° (ENE) 18:22:25 437.490
NOAA 15 30 Aug 18:13:02 18:18:17 86° 255° (WSW) 18:23:36 137.62
GOMX 1 30 Aug 18:17:30 18:22:39 79° 75° (ENE) 18:28:06 467.674
CUTE-I 30 Aug 18:22:32 18:27:52 90° 104° (ESE) 18:33:14 437.470
CINEMA 3 30 Aug 18:27:14 18:29:51 14° 62° (ENE) 18:32:27 145.822/145.860
KKS-1 30 Aug 18:38:41 18:39:21 10° 301° (WNW) 18:40:01 437.445
Cosmos 2491 30 Aug 18:40:34 18:49:16 76° 279° (W) 18:58:05 435.465 / 435.565
BEESAT 2 30 Aug 18:54:58 18:58:49 46° 242° (WSW) 19:02:39 435.950
CUBESAT XI-V 30 Aug 18:57:33 19:01:47 34° 291° (WNW) 19:06:00 437.345
YUBILEINY 30 Aug 18:59:46 19:07:06 32° 277° (W) 19:14:24 435.215
BRITE-PL 30 Aug 19:00:25 19:04:06 21° 270° (W) 19:08:00 437.365/2234.400
Cosmos 2504 30 Aug 19:02:43 19:09:53 71° 266° (W) 19:17:02 435.465 / 435.565
STARS 30 Aug 19:05:14 19:06:05 10° 300° (WNW) 19:06:55 437.465
HO-68 30 Aug 19:06:55 19:13:34 43° 65° (ENE) 19:20:14 435.675
BEESAT 3 30 Aug 19:07:14 19:09:56 18° 249° (WSW) 19:12:37 437.485
LilacSat-2 30 Aug 19:09:12 19:12:17 23° 265° (W) 19:15:24 437.200
SEEDS 30 Aug 19:22:22 19:25:34 22° 68° (ENE) 19:28:47 437.485
AIST 1 30 Aug 19:27:44 19:31:18 23° 73° (ENE) 19:34:50
NOAA 18 30 Aug 19:31:56 19:36:27 26° 265° (W) 19:41:00 137.9125
AAUSAT CUBESAT 2 30 Aug 19:43:53 19:46:56 20° 67° (ENE) 19:50:00 437.432
DOVE 4 30 Aug 19:45:42 19:50:24 34° 265° (W) 19:55:13 437.250
UWE-3 30 Aug 19:49:19 19:52:12 17° 65° (ENE) 19:55:04 435.000/436.395/437.385
PCSat 30 Aug 19:49:29 19:54:32 37° 52° (NE) 19:59:33 145.827
CANX-2 30 Aug 19:49:42 19:53:53 73° 75° (ENE) 19:58:05 2200.000
COMPASS 1 30 Aug 19:54:35 19:58:18 33° 70° (ENE) 20:02:02 437.405
Cubesat XI-IV 30 Aug 19:54:53 19:57:40 14° 270° (W) 20:00:28 437.490
CUTE 1.7 + AOD 2 30 Aug 19:55:07 19:59:18 73° 75° (ENE) 20:03:30 437.475
AIST 2 30 Aug 19:57:03 20:00:53 34° 50° (NE) 20:04:43 435.215
ZACube-1 30 Aug 19:57:12 19:59:11 13° 63° (ENE) 20:01:08 437.345
CUBEBUG 2 30 Aug 19:57:32 20:01:35 30° 70° (ENE) 20:05:33 437.445
GOMX 1 30 Aug 19:58:58 20:01:22 13° 273° (W) 20:03:50 467.674
STRAND 1 30 Aug 20:00:17 20:05:18 56° 101° (E) 20:10:19 437.568
CINEMA 3 30 Aug 20:01:22 20:06:23 74° 258° (WSW) 20:11:20 145.822/145.860
CUTE-I 30 Aug 20:07:22 20:08:37 11° 272° (W) 20:09:51 437.470
Cosmos 2491 30 Aug 20:42:56 20:47:47 16° 302° (WNW) 20:52:41 435.465 / 435.565
DELFI C3 30 Aug 20:53:59 20:56:48 19° 67° (ENE) 20:59:39 145.870
HO-68 30 Aug 20:54:42 21:01:17 38° 262° (W) 21:07:56 435.675
Oscar 11 30 Aug 20:55:06 20:59:16 51° 73° (ENE) 21:03:26 145.826/435.025
SEEDS 30 Aug 20:57:24 21:01:06 31° 264° (W) 21:04:49 437.485
AIST 1 30 Aug 21:05:05 21:08:53 29° 270° (W) 21:12:40
FUNcube-1 30 Aug 21:07:05 21:11:28 66° 75° (ENE) 21:15:45 145.935
AAUSAT CUBESAT 2 30 Aug 21:18:31 21:22:13 32° 264° (W) 21:25:57 437.432
GONETS M04 30 Aug 21:19:11 21:25:04 19° 61° (ENE) 21:30:54
UWE-3 30 Aug 21:23:54 21:28:18 49° 261° (W) 21:32:37 435.000/436.395/437.385
ZACube-1 30 Aug 21:30:33 21:34:57 64° 259° (W) 21:39:17 437.345
COMPASS 1 30 Aug 21:30:56 21:33:56 19° 267° (W) 21:36:57 437.405
M-CUBED/EXP-1 PRIME 30 Aug 21:31:46 21:34:08 14° 57° (ENE) 21:36:31 437.505
PCSat 30 Aug 21:33:03 21:37:50 33° 250° (WSW) 21:42:36 145.827
CUBEBUG 2 30 Aug 21:34:13 21:38:10 27° 265° (W) 21:42:02 437.445
AIST 2 30 Aug 21:35:49 21:39:13 24° 247° (WSW) 21:42:37 435.215
STRAND 1 30 Aug 21:40:31 21:44:03 19° 297° (WNW) 21:47:33 437.568
HUMSAT D 30 Aug 21:46:56 21:50:46 37° 72° (ENE) 21:54:35 437.325/437.525
PRISM 30 Aug 21:55:22 21:59:34 78° 283° (WNW) 22:03:44 437.425
Cosmos 2499 30 Aug 21:57:36 22:02:39 20° 66° (ENE) 22:07:43 435.465 / 435.565
UNISAT 6 30 Aug 22:12:45 22:15:27 16° 92° (E) 22:18:08 437.425
O/OREOS (USA 219) 30 Aug 22:19:36 22:23:13 22° 57° (ENE) 22:26:50 437.305
CUBEBUG 1 30 Aug 22:23:42 22:25:16 12° 61° (ENE) 22:26:52 437.445
DELFI C3 30 Aug 22:27:54 22:31:26 31° 263° (W) 22:34:59 145.870
VELOX 1 30 Aug 22:30:53 22:32:27 12° 61° (ENE) 22:34:03 145.980
SO-50 30 Aug 22:33:16 22:37:44 37° 115° (ESE) 22:42:11 436.795
Oscar 11 30 Aug 22:33:25 22:35:41 14° 269° (W) 22:37:57 145.826/435.025
FUNcube-1 30 Aug 22:46:44 22:48:05 11° 270° (W) 22:49:26 145.935
ANTELSAT 30 Aug 22:48:32 22:52:34 40° 98° (E) 22:56:34 437.575/2403.000
RS-15 30 Aug 22:52:13 22:57:06 14° 93° (E) 23:02:03 29.354- 29.394
AUBIESAT-1 30 Aug 22:54:37 22:59:15 71° 69° (ENE) 23:03:49 437.475
M-CUBED/EXP-1 PRIME 30 Aug 23:03:20 23:08:02 79° 253° (WSW) 23:12:45 437.505
CUSAT 1 30 Aug 23:05:55 23:08:54 48° 94° (E) 23:12:41 437.405
UKube-1 30 Aug 23:08:45 23:11:17 15° 63° (ENE) 23:13:50 .
GONETS M04 30 Aug 23:14:20 23:23:17 87° 85° (E) 23:32:08
JAS-2 30 Aug 23:16:09 23:18:37 12° 87° (E) 23:21:07 435.910
AISAT 30 Aug 23:17:19 23:21:23 36° 70° (ENE) 23:25:30 437.250
TIGRISAT 30 Aug 23:18:17 23:22:34 83° 103° (ESE) 23:26:49 435.000
ESTCUBE 1 30 Aug 23:23:23 23:27:51 75° 74° (ENE) 23:32:21 437.505/2401.250
HUMSAT D 30 Aug 23:23:45 23:26:31 17° 267° (W) 23:29:17 437.325/437.525
PHONESAT 2.4 30 Aug 23:33:34 23:33:43 10° 148° (SSE) 23:33:54 2401.200-2431.200
QB50P1 30 Aug 23:38:17 23:41:23 20° 94° (E) 23:44:29 145.935-145.965
UNISAT 6 30 Aug 23:48:20 23:52:23 42° 288° (WNW) 23:56:23 437.425
POPSAT HIP 1 30 Aug 23:48:21 23:51:51 25° 95° (E) 23:55:19 437.405
Cosmos 2499 30 Aug 23:49:26 23:56:26 70° 266° (W) 00:03:34 435.465 / 435.565
50 SAT 30 Aug 23:51:34 23:55:09 83° 73° (ENE) 23:58:44 437.505
CUBEBUG 1 30 Aug 23:56:32 00:00:56 74° 259° (W) 00:05:23 437.445
SPROUT 30 Aug 23:57:34 00:01:42 46° 72° (ENE) 00:05:50 437.525
O/OREOS (USA 219) 30 Aug 23:58:29 00:02:46 40° 254° (WSW) 00:07:03 437.305
VELOX 1 31 Aug 00:03:52 00:08:17 75° 257° (WSW) 00:12:47 145.980
TISAT 1 31 Aug 00:05:58 00:07:59 13° 63° (ENE) 00:09:59 437.305
DX 1 31 Aug 00:08:56 00:13:18 85° 78° (ENE) 00:17:44 434.975-435.025
DUCHIFAT 1 31 Aug 00:11:24 00:15:22 40° 98° (E) 00:19:17 145.980
SO-50 31 Aug 00:13:59 00:18:16 30° 313° (NW) 00:22:32 436.795
QB50P2 31 Aug 00:19:11 00:23:23 62° 101° (E) 00:27:32 145.880/145.840
POLYITAN 1 31 Aug 00:21:41 00:25:53 62° 101° (E) 00:30:01 437.675
ANTELSAT 31 Aug 00:26:04 00:28:59 18° 295° (WNW) 00:31:54 437.575/2403.000
NANOSAT C BR1 31 Aug 00:26:52 00:31:04 67° 101° (ESE) 00:35:13 145.865
AUBIESAT-1 31 Aug 00:32:02 00:34:03 13° 265° (W) 00:36:05 437.475
DANDE 31 Aug 00:37:29 00:39:53 30° 287° (WNW) 00:42:34 436.750
UKube-1 31 Aug 00:42:42 00:46:54 52° 260° (W) 00:51:09 .
BUGSAT 1 31 Aug 00:51:37 00:55:37 48° 99° (E) 00:59:33 437.445
AISAT 31 Aug 00:54:34 00:57:57 21° 266° (W) 01:01:22 437.250
RS-15 31 Aug 00:55:36 01:06:54 67° 115° (ESE) 01:18:51 29.354- 29.394
JAS-2 31 Aug 00:57:29 01:04:30 70° 103° (ESE) 01:12:09 435.910
ESTCUBE 1 31 Aug 01:04:46 01:05:10 10° 271° (W) 01:05:35 437.505/2401.250
PHONESAT 2.4 31 Aug 01:06:43 01:09:32 38° 163° (SSE) 01:12:22 2401.200-2431.200
GONETS M04 31 Aug 01:13:10 01:18:51 19° 283° (WNW) 01:24:32
QB50P1 31 Aug 01:13:26 01:17:15 34° 290° (WNW) 01:21:03 145.935-145.965
SWISSCUBE 31 Aug 01:19:51 01:23:15 20° 64° (ENE) 01:26:40 437.505
POPSAT HIP 1 31 Aug 01:24:01 01:27:36 27° 291° (WNW) 01:31:08 437.405
SPROUT 31 Aug 01:35:15 01:37:51 16° 268° (W) 01:40:29 437.525
BEESAT 31 Aug 01:35:59 01:39:52 25° 66° (ENE) 01:43:45 436.000
TISAT 1 31 Aug 01:38:56 01:43:07 60° 259° (W) 01:47:21 437.305
DUCHIFAT 1 31 Aug 01:47:56 01:50:45 18° 295° (WNW) 01:53:32 145.980
QB50P2 31 Aug 01:56:52 01:58:40 12° 298° (WNW) 02:00:26 145.880/145.840
POLYITAN 1 31 Aug 01:59:26 02:01:09 12° 298° (WNW) 02:02:52 437.675
NANOSAT C BR1 31 Aug 02:04:47 02:06:14 12° 298° (WNW) 02:07:40 145.865
Oscar 19 31 Aug 02:09:28 02:14:37 57° 101° (E) 02:19:42 437.125/150
Gurwin Techsat 1B 31 Aug 02:10:21 02:14:51 27° 95° (E) 02:19:18 435.225
ITUPSAT 1 31 Aug 02:24:52 02:29:37 76° 74° (ENE) 02:34:23 437.325
BUGSAT 1 31 Aug 02:28:17 02:30:34 15° 296° (WNW) 02:32:51 437.445
PHONESAT 2.4 31 Aug 02:42:44 02:45:44 72° 178° (S) 02:48:44 2401.200-2431.200
JAS-2 31 Aug 02:43:36 02:49:00 25° 298° (WNW) 02:54:48 435.910
AO-7 31 Aug 02:52:28 02:55:56 13° 87° (E) 02:59:22 29.400- 29.500
MOZHAYETS 4 31 Aug 02:54:12 02:57:43 23° 66° (ENE) 03:01:16
SWISSCUBE 31 Aug 02:56:09 03:00:43 46° 261° (W) 03:05:18 437.505
Cosmos 2491 31 Aug 02:58:23 03:00:12 11° 53° (NE) 03:02:01 435.465 / 435.565
RS-15 31 Aug 03:09:06 03:20:08 44° 320° (NW) 03:31:42 29.354- 29.394
BEESAT 31 Aug 03:13:09 03:17:29 35° 263° (W) 03:21:50 436.000
ITAMSAT 1 31 Aug 03:31:49 03:36:48 45° 99° (E) 03:41:45 435.822/435.867
Oscar 19 31 Aug 03:49:52 03:53:28 19° 298° (WNW) 03:57:03 437.125/150
Gurwin Techsat 1B 31 Aug 03:49:58 03:54:52 38° 291° (WNW) 03:59:44 435.225
KKS-1 31 Aug 03:56:49 04:01:18 80° 74° (ENE) 04:05:48 437.445
ITUPSAT 1 31 Aug 04:06:34 04:07:59 11° 271° (W) 04:09:24 437.325
AO-85 31 Aug 04:11:43 04:16:35 37° 115° (ESE) 04:21:14 145.980
YUBILEINY 31 Aug 04:14:24 04:16:32 11° 72° (ENE) 04:18:40 435.215
PHONESAT 2.4 31 Aug 04:19:04 04:21:56 43° 196° (SSW) 04:24:48 2401.200-2431.200
STARS 31 Aug 04:22:22 04:26:47 73° 74° (ENE) 04:31:13 437.465
CUBESAT XI-V 31 Aug 04:24:07 04:27:52 25° 67° (ENE) 04:31:40 437.345
MOZHAYETS 4 31 Aug 04:30:29 04:34:41 36° 263° (W) 04:38:53
AO-7 31 Aug 04:41:43 04:50:03 73° 106° (ESE) 04:58:18 29.400- 29.500
Cosmos 2491 31 Aug 04:50:41 04:59:22 56° 77° (ENE) 05:08:00 435.465 / 435.565
HORYU 2 31 Aug 05:10:30 05:13:54 21° 95° (E) 05:17:17 437.375
ITAMSAT 1 31 Aug 05:11:57 05:15:58 23° 296° (WNW) 05:19:58 435.822/435.867
BRITE-PL 31 Aug 05:26:00 05:29:53 19° 89° (E) 05:33:41 437.365/2234.400
RS-15 31 Aug 05:27:52 05:37:05 24° 354° (N) 05:46:29 29.354- 29.394
STRAND 1 31 Aug 05:41:48 05:43:01 11° 57° (ENE) 05:44:13 437.568
Cosmos 2504 31 Aug 05:50:39 05:55:45 18° 80° (E) 06:00:40 435.465 / 435.565
AO-85 31 Aug 05:52:21 05:57:05 34° 311° (NW) 06:01:36 145.980
PHONESAT 2.4 31 Aug 05:56:30 05:57:49 12° 211° (SSW) 05:59:07 2401.200-2431.200
CUBESAT XI-V 31 Aug 06:00:57 06:05:06 33° 264° (W) 06:09:17 437.345
YUBILEINY 31 Aug 06:02:46 06:11:27 65° 92° (E) 06:20:09 435.215
STARS 31 Aug 06:03:00 06:03:37 10° 271° (W) 06:04:15 437.465
NOAA 18 31 Aug 06:13:18 06:16:51 17° 92° (E) 06:20:23 137.9125
GOMX 1 31 Aug 06:20:07 06:24:30 25° 92° (E) 06:28:40 467.674
ISS 31 Aug 06:26:54 06:28:13 12° 130° (SE) 06:29:32 145.825
NOAA 15 31 Aug 06:28:11 06:33:03 35° 97° (E) 06:37:53 137.62
Cubesat XI-IV 31 Aug 06:29:16 06:33:48 28° 95° (E) 06:38:19 437.490
AO-7 31 Aug 06:35:28 06:42:05 28° 305° (NW) 06:48:42 29.400- 29.500
CUTE-I 31 Aug 06:39:38 06:44:29 35° 97° (E) 06:49:19 437.470
LilacSat-2 31 Aug 06:41:38 06:45:05 33° 97° (E) 06:48:31 437.200
HORYU 2 31 Aug 06:46:31 06:50:32 35° 290° (WNW) 06:54:31 437.375
Cosmos 2491 31 Aug 06:48:14 06:55:43 32° 276° (W) 07:03:12 435.465 / 435.565
BRITE-PL 31 Aug 07:03:08 07:08:47 63° 287° (WNW) 07:14:13 437.365/2234.400
SO-50 31 Aug 07:04:28 07:08:43 35° 48° (NE) 07:12:52 436.795
STRAND 1 31 Aug 07:16:15 07:21:21 81° 75° (ENE) 07:26:27 437.568
